Wind_Speed
29 24 22 21 19 17 20 15 14 10 11 12 11 9 6 6 10 11 9 6 3 2 5 5 8 8 7 11 13 11 14 12 8 6 8 9 9 8 8 8 10 11 11 12 13 13 13 12 11
26 21 20 19 19 17 21 15 15 10 11 11 9 8 3 7 8 10 9 7 4 3 7 6 7 9 13 14 14 12 10 9 9 10 9 8 8 8 7 9 10 11 13 12 12 12 11 11 10
25 21 20 17 18 18 19 13 9 10 10 11 8 7 4 5 6 8 6 6 4 3 6 7 9 12 15 14 13 9 10 9 9 9 7 6 8 6 8 9 10 12 12 12 10 10 10 10 11
24 22 19 18 17 16 18 16 12 12 10 10 8 7 5 4 5 5 3 5 4 3 7 10 14 14 15 15 11 9 9 8 7 6 6 5 6 5 7 8 11 11 11 10 9 9 9 9 9
28 25 23 20 19 14 15 15 14 12 11 11 9 7 6 4 3 3 2 5 5 5 9 13 17 18 15 12 10 9 8 6 5 5 3 4 4 5 7 9 10 10 9 9 8 7 7 8 9
29 27 23 22 22 16 15 15 15 13 12 11 10 8 7 6 4 1 0 6 7 8 10 13 18 18 15 13 11 8 6 3 2 2 1 2 3 5 8 10 10 9 8 7 6 6 6 7 8
26 26 25 24 25 19 15 14 13 12 12 12 11 8 8 8 6 3 2 6 9 11 9 11 13 12 12 14 13 9 6 4 2 1 0 2 4 6 9 10 8 7 5 3 4 4 4 6 7
24 28 28 26 26 26 19 15 13 11 12 12 12 10 10 9 9 5 5 8 11 12 12 11 11 14 14 14 13 11 8 5 3 2 3 3 5 7 9 8 6 4 2 1 2 2 3 5 6
30 30 29 27 26 28 21 17 14 12 13 13 13 9 11 10 10 8 8 9 12 15 14 12 10 10 12 14 14 13 11 9 7 6 6 7 7 8 9 7 5 2 1 1 1 2 4 6 6
28 26 30 32 28 25 24 21 15 14 15 13 12 9 10 11 12 11 10 10 11 13 15 14 10 11 12 15 16 14 12 10 9 8 9 10 9 10 10 8 6 4 3 3 3 4 5 7 8
28 25 32 30 26 29 26 25 20 18 17 12 13 12 10 11 12 12 13 13 12 11 12 11 12 10 9 10 12 14 13 11 10 11 12 13 12 12 11 8 5 4 5 6 7 8 8 10 10
32 28 32 31 32 30 26 26 23 21 17 17 13 15 10 10 12 12 13 15 16 14 12 13 13 13 12 11 11 12 13 11 12 12 13 14 14 13 11 8 6 7 8 9 10 11 11 12 13
33 31 31 27 34 32 30 27 24 25 19 18 15 15 12 10 12 11 11 14 16 17 15 13 13 12 12 12 12 11 12 12 11 12 14 14 14 13 11 9 9 11 12 13 14 15 16 17 18
32 35 32 28 35 33 31 29 25 26 23 20 19 17 14 13 14 13 11 12 15 18 19 16 16 13 14 14 12 10 11 12 10 11 13 14 15 13 12 12 13 14 15 17 17 18 19 20 21
40 40 34 32 30 29 30 28 23 28 24 23 22 21 18 16 17 15 13 12 13 16 17 18 17 16 13 14 15 14 12 12 13 13 14 15 15 16 17 17 16 18 19 21 21 22 23 23 25
41 41 41 36 34 32 27 17 27 27 21 23 24 23 23 20 20 16 15 14 13 14 16 16 18 18 17 15 14 14 15 14 14 16 17 17 19 20 20 20 20 22 23 24 24 26 27 27 28
45 46 45 38 34 32 24 22 27 24 21 25 25 26 25 23 22 22 20 18 16 14 15 17 17 17 17 16 15 14 15 16 18 19 19 20 22 23 23 23 23 26 26 28 28 29 30 31 31
49 47 47 38 36 34 27 23 27 25 22 19 21 26 26 27 25 27 23 20 19 17 15 16 18 17 17 16 16 17 18 19 19 21 22 22 24 25 26 26 27 28 29 30 30 32 33 34 34
46 46 44 37 40 39 31 31 31 31 27 23 21 22 21 24 28 29 26 24 22 20 18 18 17 19 19 20 21 21 21 21 20 20 20 22 26 28 29 29 30 30 33 33 33 35 36 36 36
47 47 41 37 44 40 36 35 34 34 28 24 23 19 16 16 21 26 28 28 26 24 22 20 19 20 20 22 23 23 23 23 24 24 25 27 29 30 32 31 32 34 35 35 36 38 39 39 38
52 49 46 43 46 40 37 38 36 32 31 28 21 18 15 18 15 18 28 30 30 26 26 25 24 24 22 23 24 24 24 25 27 28 29 31 30 32 32 34 35 36 37 37 38 40 40 40 41
51 48 44 43 46 42 39 43 36 33 30 26 23 21 19 15 18 19 18 28 30 30 30 29 28 27 26 26 26 27 27 27 30 32 32 33 32 35 36 37 39 40 39 40 41 43 43 43 43
52 49 46 46 49 45 42 46 36 38 36 27 27 26 22 20 19 22 21 22 32 34 33 32 33 32 31 30 31 31 31 31 33 34 34 34 36 38 40 42 44 44 43 44 45 45 45 45 45
52 50 49 48 50 49 46 48 46 40 36 29 28 26 22 23 23 23 23 26 28 32 34 34 36 35 37 36 36 35 35 36 36 38 37 37 41 41 42 46 46 46 46 47 48 49 48 47 47
55 53 51 50 52 54 49 51 56 39 34 29 26 25 27 28 30 28 27 23 25 25 29 34 38 39 41 41 41 40 40 40 40 41 41 41 44 45 47 48 48 49 49 49 51 51 52 52 51
54 55 53 52 53 51 49 51 52 42 34 30 30 31 31 30 30 31 31 31 30 29 29 31 34 39 44 46 44 45 45 44 44 46 46 45 46 48 50 52 52 52 52 51 54 55 55 55 55
59 60 56 56 55 55 55 50 47 44 31 31 32 33 34 33 32 34 36 36 35 36 36 36 37 37 38 43 47 48 48 49 49 49 50 49 49 50 52 54 54 54 55 55 55 58 58 58 57
57 55 54 54 55 52 51 50 46 44 38 32 32 34 37 38 39 40 40 42 42 40 41 39 38 39 40 40 41 45 50 52 53 54 54 54 53 51 56 57 55 56 57 57 58 59 60 60 60
60 64 63 58 56 54 50 47 43 41 40 38 36 38 37 38 41 44 46 47 47 45 43 42 40 39 40 42 42 45 47 52 59 59 58 57 56 53 57 58 57 58 59 59 60 60 62 62 61
62 62 62 60 58 56 55 49 46 45 47 47 45 40 42 43 44 45 46 49 52 50 49 48 45 43 44 44 42 41 44 49 56 60 60 59 59 58 58 58 59 59 59 59 61 60 61 62 62
Wind_Direction
216 223 228 235 238 244 248 251 265 273 298 310 323 322 348 342 3 6 5 17 21 117 136 159 174 172 172 149 140 125 133 154 156 153 137 121 102 83 72 76 77 80 77 81 81 75 72 67 65
213 219 222 228 241 242 248 236 251 266 286 298 316 313 326 329 354 356 10 24 48 124 133 154 163 150 152 150 137 135 144 158 148 140 129 109 92 74 74 82 85 83 86 84 82 78 73 70 63
207 210 218 224 242 244 247 240 236 256 274 290 305 304 280 310 356 353 11 52 78 141 140 158 147 149 155 157 155 150 149 154 146 138 112 91 79 73 86 87 85 92 91 92 84 79 72 62 54
207 208 214 224 236 250 245 243 233 251 267 280 295 292 277 287 347 355 31 68 75 126 140 153 140 151 159 161 155 159 156 165 153 124 99 91 76 89 97 98 99 97 94 87 77 66 59 54 44
209 213 218 220 237 247 239 241 241 248 260 273 283 276 265 260 316 352 42 110 120 131 144 147 142 147 153 156 141 151 151 152 159 126 107 100 103 118 109 112 107 96 91 84 75 63 49 42 38
223 222 223 226 231 235 236 240 243 248 254 267 276 271 255 245 265 317 151 151 144 145 157 157 151 155 154 157 156 161 170 181 146 117 95 108 127 130 126 117 104 96 89 84 74 58 44 40 36
224 224 225 225 230 225 222 233 240 248 256 265 266 259 253 237 243 247 214 175 171 175 179 177 177 173 170 175 173 174 168 177 156 19 341 192 168 153 133 122 116 111 96 81 69 59 42 37 31
241 224 227 225 228 227 223 225 235 248 253 260 267 264 251 235 239 226 237 191 185 190 182 204 188 186 183 187 190 181 186 195 174 200 238 206 191 159 144 140 135 124 112 63 47 40 21 15 12
248 229 224 231 228 230 227 224 229 234 249 255 261 266 263 242 234 233 241 211 197 198 191 197 222 226 210 201 206 207 204 209 205 202 209 206 193 172 162 162 164 166 222 256 317 340 342 347 347
229 231 228 231 228 230 229 227 225 228 242 250 261 256 263 259 240 231 234 237 216 207 216 210 212 242 234 227 218 221 213 214 221 215 213 204 195 186 183 189 199 216 244 272 295 305 311 318 322
228 244 229 235 229 227 226 228 229 233 237 249 260 262 255 262 257 241 234 236 231 222 217 206 205 195 225 222 220 222 218 217 218 216 212 210 202 200 204 214 226 268 286 298 307 311 312 308 309
236 233 234 232 231 223 231 227 226 234 238 239 244 260 257 260 261 248 235 236 230 225 223 217 217 221 210 226 234 235 231 220 209 211 214 219 217 213 218 235 265 292 308 308 306 304 299 301 305
233 230 236 233 235 227 230 225 226 236 232 241 240 246 255 255 255 255 250 237 231 243 238 228 230 242 257 241 242 251 251 226 219 215 219 232 230 230 235 251 277 294 297 300 301 300 301 303 307
226 234 233 235 237 230 236 228 230 240 239 242 244 248 247 248 250 245 251 253 239 239 245 244 245 250 260 274 267 248 232 228 228 235 240 242 237 243 252 265 274 287 295 297 299 300 300 302 305
233 237 232 233 231 234 242 241 243 243 240 243 244 244 247 244 243 247 248 248 252 251 249 246 251 254 264 268 275 278 251 231 230 229 243 254 247 249 255 264 274 284 291 296 299 299 300 303 306
231 234 233 231 234 237 246 233 230 235 243 247 250 249 249 244 248 246 242 248 247 248 249 251 250 253 259 259 264 265 269 261 249 245 242 237 240 248 255 265 275 283 290 297 299 298 300 302 305
228 231 236 232 236 237 240 235 236 242 241 248 249 248 250 250 250 250 242 242 245 245 248 251 252 255 258 262 260 257 261 260 262 259 252 248 245 250 260 268 278 286 293 298 297 298 300 302 304
227 233 236 236 235 237 232 232 244 243 238 248 258 256 251 254 249 251 251 248 248 249 247 256 258 256 254 257 256 256 254 253 256 263 264 264 259 260 264 270 276 284 291 294 294 297 299 302 303
228 230 239 236 240 240 235 234 242 245 244 249 261 266 258 258 256 258 256 254 251 252 251 253 258 262 262 254 253 250 252 258 258 258 262 263 265 264 267 272 279 287 291 293 295 296 298 298 299
227 231 231 232 239 238 239 238 242 248 253 258 264 271 268 259 270 263 261 260 256 255 256 255 254 257 257 258 255 257 258 261 260 260 259 259 261 264 268 274 280 284 288 289 292 295 297 298 299
226 229 230 234 239 239 238 241 242 247 248 255 261 259 263 262 263 267 261 259 258 258 260 258 256 256 259 260 262 263 265 265 267 265 267 269 267 267 269 274 277 282 285 287 289 291 295 298 300
228 231 232 236 239 240 240 243 242 244 249 252 258 254 259 269 259 263 266 264 260 259 256 259 260 262 263 265 268 266 266 269 269 271 273 274 272 271 273 277 280 282 283 284 287 291 294 297 298
227 228 231 231 237 236 235 245 229 242 244 247 250 248 259 266 269 273 267 255 252 252 260 260 261 261 263 264 265 266 268 267 268 270 271 272 273 274 277 279 282 284 283 284 286 289 292 295 298
226 229 230 230 235 236 235 241 236 236 248 244 243 247 261 262 267 272 273 264 252 248 253 255 262 263 265 265 265 265 265 268 269 271 272 272 272 272 273 276 278 280 281 282 286 289 291 293 295
225 228 229 231 232 237 235 239 250 237 243 248 253 257 253 257 262 262 266 269 270 258 250 255 259 262 264 265 265 266 266 266 270 271 272 274 274 275 274 275 276 277 280 281 283 285 288 291 293
229 230 232 234 237 239 241 243 248 251 250 247 253 256 257 260 262 265 269 274 271 265 264 266 268 264 262 263 264 265 267 269 267 270 273 274 274 275 276 277 278 280 281 282 283 284 286 289 291
222 226 229 232 236 238 243 245 251 255 246 249 250 253 257 258 256 258 264 266 263 265 269 270 270 268 268 265 262 264 265 268 268 268 270 271 273 276 276 276 278 280 281 281 282 284 286 288 289
223 228 232 235 237 242 244 246 248 251 255 244 249 250 253 255 256 256 258 259 260 262 265 267 265 265 266 269 271 270 267 266 267 267 268 268 270 273 275 276 277 277 278 280 281 282 284 286 288
226 229 231 230 232 237 239 242 242 249 254 251 241 244 245 248 252 254 255 255 256 259 262 262 262 262 265 269 268 266 268 268 267 268 268 269 270 272 273 276 277 277 278 280 281 282 284 285 287
227 227 232 236 237 237 242 242 243 244 248 250 249 244 247 251 252 253 255 255 256 258 262 261 262 265 267 266 269 270 271 270 269 270 272 273 272 272 273 275 276 278 280 280 282 283 285 287 288
Height
5862 5864 5867 5869 5872 5872 5870 5873 5872 5873 5873 5873 5872 5872 5872 5871 5870 5871 5867 5866 5864 5866 5868 5869 5870 5871 5873 5875 5876 5876 5878 5880 5881 5883 5885 5887 5887 5887 5887 5887 5887 5887 5886 5886 5886 5886 5886 5886 5886
5859 5862 5865 5867 5869 5869 5867 5870 5870 5872 5872 5872 5872 5872 5872 5872 5871 5870 5869 5867 5866 5867 5867 5869 5870 5872 5874 5876 5877 5878 5880 5882 5883 5885 5887 5888 5888 5888 5888 5887 5887 5887 5887 5887 5887 5887 5887 5887 5887
5856 5859 5864 5865 5866 5866 5866 5868 5870 5870 5870 5871 5870 5872 5873 5873 5871 5870 5870 5869 5868 5868 5869 5870 5871 5873 5875 5877 5879 5880 5881 5884 5886 5887 5888 5889 5889 5889 5889 5888 5888 5888 5889 5888 5889 5889 5889 5888 5887
5854 5858 5862 5862 5864 5865 5866 5867 5869 5869 5869 5870 5870 5871 5872 5873 5872 5871 5871 5871 5871 5871 5870 5870 5871 5875 5877 5879 5880 5882 5883 5885 5887 5888 5889 5890 5890 5890 5890 5890 5890 5890 5890 5890 5890 5890 5889 5889 5887
5852 5854 5857 5859 5861 5863 5863 5865 5867 5868 5868 5869 5869 5871 5872 5872 5873 5872 5872 5872 5872 5872 5872 5872 5873 5875 5878 5880 5881 5883 5885 5887 5888 5889 5890 5890 5890 5891 5891 5891 5891 5892 5891 5891 5891 5890 5890 5889 5889
5849 5851 5856 5857 5858 5860 5862 5863 5865 5867 5867 5868 5868 5869 5871 5871 5872 5873 5872 5872 5873 5873 5874 5875 5875 5876 5878 5880 5882 5884 5887 5888 5890 5890 5890 5891 5892 5892 5891 5892 5892 5892 5891 5891 5891 5891 5890 5889 5888
5846 5849 5852 5853 5854 5858 5859 5861 5863 5866 5867 5867 5868 5868 5870 5870 5872 5872 5873 5873 5873 5874 5876 5877 5877 5878 5879 5881 5882 5884 5887 5888 5889 5890 5891 5892 5892 5892 5891 5892 5892 5892 5891 5891 5891 5891 5890 5889 5888
5843 5846 5848 5850 5852 5854 5857 5859 5862 5864 5866 5866 5867 5867 5868 5869 5871 5872 5873 5874 5873 5874 5874 5878 5879 5879 5880 5882 5883 5884 5885 5888 5888 5890 5891 5892 5892 5892 5892 5892 5892 5892 5892 5892 5891 5890 5889 5888 5887
5839 5843 5846 5848 5849 5851 5855 5857 5859 5861 5863 5864 5866 5866 5866 5867 5869 5871 5872 5873 5873 5874 5875 5877 5880 5881 5882 5882 5883 5884 5884 5886 5887 5888 5890 5891 5892 5892 5892 5892 5891 5891 5891 5890 5889 5889 5888 5888 5887
5837 5839 5842 5843 5846 5850 5851 5854 5857 5858 5860 5862 5865 5865 5864 5866 5867 5869 5871 5873 5873 5873 5876 5877 5877 5880 5882 5883 5883 5883 5884 5884 5886 5888 5889 5890 5891 5891 5890 5890 5890 5890 5889 5889 5888 5888 5887 5886 5885
5834 5838 5837 5840 5844 5847 5848 5851 5853 5855 5857 5862 5863 5863 5863 5864 5866 5867 5869 5870 5872 5874 5874 5876 5876 5877 5881 5882 5883 5883 5883 5883 5885 5886 5888 5890 5889 5889 5889 5889 5889 5889 5889 5889 5888 5887 5886 5885 5884
5830 5832 5834 5836 5839 5843 5845 5848 5850 5853 5855 5858 5861 5861 5862 5862 5864 5865 5866 5868 5869 5871 5873 5874 5876 5877 5878 5880 5881 5883 5883 5883 5884 5885 5887 5889 5889 5889 5888 5889 5890 5889 5889 5888 5887 5886 5885 5883 5881
5825 5829 5829 5834 5836 5839 5841 5844 5847 5849 5852 5854 5857 5859 5859 5859 5861 5863 5864 5866 5867 5870 5872 5873 5875 5877 5878 5879 5880 5881 5882 5883 5884 5885 5886 5888 5889 5889 5889 5889 5889 5888 5887 5886 5885 5883 5882 5880 5879
5820 5823 5825 5830 5831 5836 5838 5842 5844 5846 5849 5851 5853 5855 5857 5857 5859 5860 5862 5864 5865 5868 5870 5872 5874 5875 5877 5879 5880 5879 5880 5882 5883 5885 5886 5886 5887 5888 5888 5888 5887 5887 5885 5884 5882 5881 5879 5877 5876
5815 5818 5822 5825 5828 5831 5834 5840 5843 5840 5845 5847 5849 5851 5853 5855 5856 5859 5860 5862 5864 5866 5868 5869 5872 5873 5875 5877 5878 5880 5880 5880 5881 5881 5883 5885 5886 5886 5886 5886 5885 5884 5883 5882 5880 5878 5876 5874 5873
5808 5811 5814 5822 5824 5828 5831 5836 5835 5836 5841 5843 5846 5848 5850 5851 5853 5856 5857 5859 5861 5863 5866 5866 5868 5870 5872 5873 5875 5877 5878 5880 5880 5880 5880 5880 5881 5883 5883 5883 5883 5882 5881 5879 5877 5875 5873 5871 5870
5800 5803 5807 5816 5819 5822 5828 5830 5832 5834 5836 5839 5841 5843 5846 5848 5850 5853 5854 5856 5858 5860 5862 5864 5865 5867 5869 5871 5872 5874 5875 5876 5878 5878 5878 5878 5878 5879 5879 5879 5879 5878 5877 5876 5873 5870 5868 5867 5864
5793 5798 5802 5811 5815 5816 5823 5828 5827 5829 5831 5834 5837 5839 5842 5845 5846 5849 5852 5854 5855 5857 5859 5860 5862 5863 5865 5868 5869 5870 5871 5872 5874 5875 5876 5876 5876 5875 5875 5874 5873 5873 5871 5870 5868 5866 5863 5861 5859
5788 5791 5796 5806 5806 5812 5819 5821 5822 5824 5828 5831 5833 5836 5839 5841 5842 5846 5848 5851 5853 5854 5855 5855 5857 5859 5862 5863 5864 5864 5866 5868 5869 5870 5872 5873 5872 5871 5870 5870 5870 5869 5867 5865 5863 5860 5857 5855 5853
5780 5785 5792 5798 5798 5807 5813 5816 5818 5821 5826 5827 5829 5834 5835 5836 5838 5841 5843 5846 5850 5851 5852 5852 5853 5854 5856 5859 5859 5861 5862 5864 5865 5866 5866 5866 5865 5866 5865 5864 5864 5863 5861 5860 5857 5855 5852 5850 5846
5769 5777 5784 5791 5791 5800 5805 5809 5814 5818 5819 5821 5826 5829 5831 5831 5833 5835 5837 5841 5844 5848 5849 5849 5850 5850 5853 5854 5856 5857 5858 5859 5860 5860 5860 5860 5861 5860 5859 5858 5857 5855 5854 5853 5851 5848 5846 5843 5840
5763 5771 5778 5783 5787 5793 5798 5800 5808 5811 5815 5820 5823 5825 5825 5826 5827 5829 5834 5835 5839 5841 5843 5844 5846 5846 5848 5849 5851 5852 5853 5854 5855 5854 5854 5855 5856 5855 5854 5853 5851 5849 5847 5846 5844 5841 5839 5836 5833
5755 5765 5770 5776 5778 5784 5790 5790 5805 5804 5808 5815 5817 5818 5819 5820 5822 5824 5827 5828 5830 5832 5836 5839 5840 5841 5842 5844 5845 5846 5848 5848 5847 5847 5848 5847 5848 5848 5847 5846 5845 5843 5841 5839 5836 5833 5830 5828 5825
5748 5757 5762 5768 5770 5776 5783 5784 5793 5798 5802 5806 5808 5813 5815 5815 5817 5819 5821 5822 5822 5824 5828 5831 5834 5836 5836 5837 5838 5839 5840 5840 5840 5841 5841 5842 5840 5839 5839 5836 5835 5834 5832 5830 5828 5826 5823 5819 5816
5738 5746 5753 5757 5761 5766 5774 5776 5778 5796 5798 5801 5805 5807 5809 5810 5811 5813 5814 5817 5818 5819 5821 5822 5824 5827 5828 5829 5830 5831 5832 5832 5832 5832 5833 5834 5833 5832 5829 5827 5826 5824 5823 5821 5818 5816 5813 5810 5807
5733 5737 5745 5749 5755 5762 5766 5769 5774 5785 5793 5797 5798 5799 5801 5803 5805 5806 5807 5809 5811 5813 5813 5816 5817 5818 5819 5820 5822 5822 5822 5823 5824 5823 5823 5824 5823 5821 5821 5819 5817 5815 5814 5812 5808 5806 5803 5800 5797
5718 5724 5735 5740 5746 5751 5756 5765 5769 5773 5784 5787 5790 5791 5793 5795 5797 5799 5800 5801 5802 5804 5806 5807 5808 5809 5810 5811 5811 5812 5812 5811 5812 5813 5811 5813 5813 5810 5809 5808 5807 5806 5804 5802 5799 5794 5792 5789 5786
5714 5723 5727 5733 5739 5745 5751 5756 5762 5767 5770 5779 5781 5783 5785 5786 5788 5790 5791 5792 5793 5795 5796 5797 5799 5800 5800 5800 5801 5801 5802 5801 5800 5798 5799 5799 5800 5800 5795 5795 5794 5793 5791 5789 5787 5784 5780 5778 5775
5705 5706 5713 5722 5728 5734 5741 5750 5756 5759 5762 5766 5771 5772 5774 5776 5779 5780 5781 5782 5784 5786 5787 5788 5789 5790 5791 5790 5789 5789 5789 5788 5787 5786 5786 5785 5786 5786 5782 5781 5781 5780 5778 5776 5774 5772 5769 5766 5762
5692 5702 5706 5711 5721 5727 5734 5747 5750 5751 5750 5752 5755 5761 5763 5765 5767 5769 5770 5773 5775 5777 5778 5779 5780 5780 5780 5780 5779 5778 5777 5776 5774 5774 5773 5773 5772 5772 5770 5768 5767 5766 5765 5762 5760 5759 5756 5753 5749